Home   Weather   Loughton   Past weeks

Flag for United Kingdom Past Weather in Loughton, England, United Kingdom — Yesterday and Last 2 Weeks

Now
64 °F

Mild.


Feels Like: 64 °F
Forecast: 58 / 69 °F
Wind: 6 mph from South

Location: Gravesend-Broadness

Current Time: Sep 26, 2016 at 6:22:19 PM

Latest Report: Sep 26, 2016 at 5:00 PM


Visibility: N/A

Pressure: 30.17 "Hg

Humidity: 61%

Dew Point: 51 °F

Location of LoughtonLocation

Past Weather in Loughton — Graph

°F

Loughton Temperature Yesterday

Maximum temperature yesterday: 68 °F (at 3:00 PM)
Minimum temperature yesterday: 52 °F (at 11:00 PM)
Average temperature yesterday: 61 °F

High & Low Weather Summary for the Past Weeks

 TemperatureHumidityPressure
High90 °F (Sep 13, 5:00 PM)100% (Sep 21, 9:00 AM)30.29 "Hg (Sep 21, 9:00 AM)
Low46 °F (Sep 23, 7:00 AM)34% (Sep 13, 5:00 PM)29.76 "Hg (Sep 15, 4:00 PM)
Average63 °F77%30.02 "Hg
* Reported Sep 11 5:00 PM — Sep 26 5:00 PM, Loughton, Weather by CustomWeather, © 2016

Note: Actual official high and low records may vary slightly from our data, if they occured in-between our weather recording intervals... More about our weather records

Advertising

Loughton Weather History for the Previous 24 Hours

Scroll right to see more
 ConditionsComfort  
Time TempWeatherWind HumidityBarometerVisibility
5:00 PM
Mon, Sep 26
64 °FMild.6 mph61%30.17 "HgN/A
3:00 PM65 °FMild.10 mph62%30.17 "HgN/A
2:00 PM65 °FMild.12 mph60%30.17 "HgN/A
1:00 PM66 °FMild.8 mph61%30.18 "HgN/A
12:00 PM64 °FMild.8 mph64%30.19 "HgN/A
11:00 AM60 °FCool.5 mph75%30.19 "HgN/A
10:00 AM58 °FCool.7 mph78%30.19 "HgN/A
9:00 AM56 °FCool.3 mph86%30.18 "HgN/A
8:00 AM54 °FCool.2 mph88%30.18 "HgN/A
7:00 AM52 °FCool.2 mph88%30.18 "HgN/A
6:00 AM52 °FCool.6 mph92%30.17 "HgN/A
5:00 AM50 °FCool.5 mph90%30.18 "HgN/A
4:00 AM50 °FCool.2 mph92%30.18 "HgN/A
3:00 AM48 °FCool.2 mph92%30.19 "HgN/A
2:00 AM51 °FCool.5 mph91%30.19 "HgN/A
1:00 AM51 °FCool.5 mph86%30.17 "HgN/A
12:00 AM53 °FCool.6 mph82%30.16 "HgN/A
11:00 PM
Sun, Sep 25
52 °FCool.6 mph84%30.15 "HgN/A
10:00 PM54 °FCool.7 mph76%30.14 "HgN/A
9:00 PM57 °FCool.8 mph65%30.13 "HgN/A
8:00 PM57 °FCool.7 mph61%30.11 "HgN/A
7:00 PM62 °FRefreshingly cool.14 mph54%30.08 "HgN/A
6:00 PM64 °FMild.12 mph54%30.06 "HgN/A
Weather by CustomWeather, © 2016

See weather overviewHow to use our weather pages